Location: Arbon
(43.0005°N, 0.7472°E)
Time: 12:55:14
(UTC+00:00)

Vanguard 1 - Pass Details

Date: 03 December 2020
Orbit: 648 x 3834 km, 34.3° (Epoch: 23 January)

Event Time Altitude Azimuth Distance (km) Brightness Sun altitude
Rises 09:57:59 0° 269° (W) 4,713 13.3 20.1°
Reaches altitude 10° 10:01:25 10° 256° (WSW) 4,140 13.2 20.4°
Maximum altitude 10:10:12 25° 207° (SSW) 4,022 13.9 21.1°
Drops below altitude 10° 10:23:10 10° 162° (SSE) 6,225 16.3 22.0°
Sets 10:30:14 0° 151° (SSE) 7,650 16.0 22.5°
